sat.trackr.live / text

‹ back to catalog

STARLINK-11171 [DTC]

NORAD 60069 · 2024-113L

PAYLOAD ACTIVE UNKNOWN

§ Identity

Operator
Country
US
Launch date
2024-06-19
Launch site
AFWTR
Launch vehicle
Mass (kg)
RCS (m²)

Purposes: comms

External: N2YO · Heavens-Above · Gunter

§ Orbital elements

Epoch: 2026-09-21T03:10:45.852096Z

Period
91.74 min
Inclination
53.1576°
Eccentricity
0.0001054
Mean motion
15.69711992 rev/d
Perigee alt
359.0 km
Apogee alt
360.4 km
Semi-major
6,737.9 km
B*
7.3194e-6
RAAN
308.0444°
Arg perigee
88.1766°
Mean anomaly
271.9373°
Rev number
13,025

§ Raw data

STARLINK-11171 [DTC]1 60069U 24113L   26264.13247514  .00000298  00000+0  73194-5 0  99962 60069  53.1576 308.0444 0001054  88.1766 271.9373 15.69711992130252

JSON: /api/v1/satellites/60069 · /tle

For live sub-satellite position, see the globe view (requires WebGL).

§ Visibility from observer

Set your observer location to see the next 7 days of passes ≥ 10°. The values pass through the URL so the page stays shareable.

No JS? Fill the form by hand. The geolocation button needs JavaScript.